MOLNIYA 1-80

Last updated on Jan. 25, 2020, 4:43 a.m. UTC

1 21118U 91012A   20024.07262674 -.00000694  00000-0  00000-0 0  9998
2 21118  64.1245  73.3258 6849450 287.1761  12.6376  2.05245183213037
UTC
Height (km)
Latitude
Longitude
Inclination
Orbital Period
UTC large
Height (km)
Speed (km/s)
/
Latitude / Longitude
Inclination (degrees)
Orbital Period (minutes)
Azimuth
Elevation
Range (km)
Doppler Factor
iOS Compass Heading
iOS Angle

Next 30 passes for location: Hong Kong

Rise time Rise Azimuth (degrees) Set time Set Azimuth (degrees) Duration Max altitude (degrees)

No matching passes for this satellites